Location: Unspecified
(51.3762°N, 0.0000°E)
Time: 07:37:13
(UTC+00:00)

DX 1 - Visible Passes

Search period start: 20 July 2019 00:00
Search period end: 30 July 2019 00:00
Orbit: 618 x 632 km, 98.4° (Epoch: 20 July)

Date Brightness Start Highest point End Pass type
(mag) Time Alt. Az. Time Alt. Az. Time Alt. Az.
20 Jul ? 02:35:18 10° SE 02:39:26 44° ENE 02:43:35 10° N visible
21 Jul ? 01:21:37 10° ENE 01:22:53 11° NE 01:24:09 10° NE visible
21 Jul ? 02:53:56 10° SSE 02:58:14 65° ENE 03:02:33 10° N visible
22 Jul ? 01:38:57 10° E 01:41:30 15° NE 01:44:02 10° NNE visible
22 Jul ? 03:12:43 10° SSE 03:17:05 85° WSW 03:21:27 10° NNW visible
23 Jul ? 01:56:53 10° ESE 02:00:09 21° ENE 02:03:25 10° N visible
24 Jul ? 02:15:06 10° ESE 02:18:51 29° ENE 02:22:37 10° N visible
25 Jul ? 02:33:31 10° SE 02:37:36 41° ENE 02:41:41 10° N visible
26 Jul ? 01:20:15 10° ENE 01:21:05 10° NE 01:21:55 10° NE visible
26 Jul ? 02:52:07 10° SSE 02:56:23 61° ENE 03:00:41 10° N visible
27 Jul ? 01:37:19 10° E 01:39:41 15° NE 01:42:04 10° NNE visible
27 Jul ? 03:10:53 10° SSE 03:15:13 90° E 03:19:36 10° NNW visible
28 Jul ? 01:55:11 10° ESE 01:58:20 20° ENE 02:01:29 10° NNE visible
28 Jul ? 03:29:49 10° S 03:34:06 61° WSW 03:38:25 10° NNW visible
29 Jul ? 02:13:21 10° ESE 02:17:01 27° ENE 02:20:41 10° N visible
